Home > Weather > Mostar > Past weeks

Flag for Bosnia-Herzegovina Weather for the Past 2 Weeks in Mostar, Bosnia-Herzegovina

Now
54 °F

Broken clouds.


Feels Like: 54 °F
Forecast: 53 / 61 °F
Wind: 2 mph from North

Location: Mostar

Current Time: Feb 14, 2016 at 9:58:22 AM

Latest Report: Feb 14, 2016 at 9:00 AM


Visibility: N/A

Pressure: 29.53 "Hg

Humidity: 82%

Dew point: 48 °F

Location of MostarLocation

Historic Weather in Mostar — Graph

°F

Mostar Temperature Yesterday

Maximum temperature yesterday: 57 °F (at 2:00 PM)
Minimum temperature yesterday: 45 °F (at 12:00 AM)
Average temperature yesterday: 50 °F

High & Low Weather Summary for the Past Weeks

 TemperatureHumidityPressure
High64 °F (Feb 1, 2:00 PM)100% (Jan 30, 8:00 AM)30.45 "Hg (Jan 30, 8:00 AM)
Low25 °F (Feb 6, 5:00 AM)29% (Feb 4, 11:00 PM)29.33 "Hg (Feb 13, 7:00 AM)
Average47 °F75%30.01 "Hg
* Reported Jan 30 8:00 AM — Feb 14 8:00 AM, Mostar, Weather by CustomWeather, © 2016

Note: Actual official high and low records may vary slightly from our data, if they occured in-between our weather recording intervals... More about our weather records

Advertising

Mostar Weather History for the Previous 24 Hours

 ConditionsComfort  
Time TempWeatherWind HumidityBarometerVisibility
8:00 AM
Sun, Feb 14
48 °FPassing clouds.3 mph94%29.53 "HgN/A
7:00 AM48 °FPassing clouds.3 mph87%29.53 "HgN/A
6:00 AM48 °FPassing clouds.6 mph87%29.53 "HgN/A
5:00 AM50 °FPassing clouds.5 mph88%29.53 "HgN/A
3:00 AM48 °FPartly cloudy.6 mph87%29.50 "HgN/A
2:00 AM45 °FLight rain. Partly cloudy.3 mph93%29.50 "HgN/A
1:00 AM45 °FLight rain. Partly cloudy.3 mph93%29.53 "HgN/A
12:00 AM46 °FLight rain. Partly cloudy.3 mph87%29.56 "HgN/A
11:00 PM
Sat, Feb 13
45 °FLight rain. Partly cloudy.5 mph93%29.56 "HgN/A
10:00 PM45 °FLight rain. Passing clouds.2 mph87%29.56 "HgN/A
9:00 PM45 °FPassing clouds.2 mph81%29.56 "HgN/A
8:00 PM45 °FPassing clouds.2 mph76%29.53 "HgN/A
7:00 PM48 °FPassing clouds.6 mph71%29.53 "HgN/A
6:00 PM50 °FPassing clouds.5 mph67%29.56 "HgN/A
5:00 PM54 °FPassing clouds.6 mph58%29.53 "HgN/A
4:00 PM55 °FPassing clouds.8 mph55%29.50 "HgN/A
3:00 PM57 °FScattered clouds.2 mph59%29.47 "HgN/A
2:00 PM57 °FPassing clouds.9 mph55%29.47 "HgN/A
1:00 PM55 °FScattered clouds.6 mph67%29.47 "HgN/A
12:00 PM50 °FScattered clouds.3 mph82%29.45 "HgN/A
11:00 AM46 °FBroken clouds.3 mph93%29.45 "HgN/A
10:00 AM46 °FRain. Broken clouds.10 mph87%29.42 "HgN/A
9:00 AM46 °FHeavy rain. More clouds than sun.6 mph87%29.39 "Hg2 mi
Weather by CustomWeather, © 2016

See weather overviewHow to use our weather pages